Location: *
(28.3744°N, 81.5492°W)
Time: 04:11:51
(UTC+00:00)

IDEFIX/ARIANE 42P - Pass Details

Date: 15 June 2025
Orbit: 780 x 797 km, 98.6° (Epoch: 11 July)

Event Time Altitude Azimuth Distance (km) Brightness Sun altitude
Rises 07:59:06 0° 353° (N) 3,296 6.4 -26.6°
Reaches altitude 10° 08:01:59 10° 337° (NNW) 2,360 5.3 -26.2°
Enters shadow 08:05:00 20° 302° (WNW) 1,778 4.3 -25.8°
